This is the latest recevied weather packets stored in our database for station/object KO4MMQ-10. If no packets are shown the sender has not sent any weather packets the latest 10 day(s).
| Time | Temp. | Humidity | Pressure | Rain* | Wind** | Luminosity | Snow |
|---|---|---|---|---|---|---|---|
| 1777948708 | 20° C | 57% | 1010.1 hPa | 0 mm | - | - | - |
| 1777948108 | 20° C | 57% | 1010.2 hPa | 0 mm | - | - | - |
| 1777946909 | 20.56° C | 55% | 1010 hPa | 0 mm | - | - | - |
| 1777946308 | 20.56° C | 54% | 1009.9 hPa | 0 mm | - | - | - |
| 1777945708 | 20.56° C | 54% | 1009.8 hPa | 0 mm | - | - | - |
| 1777945109 | 21.11° C | 53% | 1009.8 hPa | 0 mm | - | - | - |
| 1777944508 | 21.11° C | 52% | 1009.8 hPa | 0 mm | - | - | - |
| 1777943908 | 21.67° C | 51% | 1009.8 hPa | 0 mm | - | - | - |
| 1777943308 | 21.67° C | 49% | 1010 hPa | 0 mm | - | - | - |
| 1777942708 | 22.22° C | 48% | 1009.9 hPa | 0 mm | - | - | - |
| 1777942108 | 22.22° C | 47% | 1009.8 hPa | 0 mm | - | - | - |
| 1777941508 | 22.78° C | 46% | 1009.7 hPa | 0 mm | - | - | - |
| 1777940908 | 22.78° C | 46% | 1009.8 hPa | 0 mm | - | - | - |
| 1777939708 | 23.89° C | 45% | 1009.9 hPa | 0 mm | - | - | - |
| 1777939108 | 23.89° C | 44% | 1009.9 hPa | 0 mm | - | - | - |
| 1777938508 | 24.44° C | 43% | 1009.8 hPa | 0 mm | - | - | - |
| 1777937908 | 25° C | 42% | 1009.9 hPa | 0 mm | - | - | - |
| 1777936708 | 25.56° C | 40% | 1009.8 hPa | 0 mm | - | - | - |
| 1777936108 | 26.11° C | 40% | 1009.9 hPa | 0 mm | - | - | - |
| 1777935508 | 26.11° C | 40% | 1009.9 hPa | 0 mm | - | - | - |
| 1777934908 | 26.67° C | 39% | 1009.7 hPa | 0 mm | - | - | - |
| 1777934308 | 26.11° C | 39% | 1009.8 hPa | 0 mm | - | - | - |
| 1777933108 | 26.67° C | 39% | 1009.7 hPa | 0 mm | - | - | - |
| 1777931308 | 26.67° C | 38% | 1009.9 hPa | 0 mm | - | - | - |
| 1777930107 | 26.67° C | 39% | 1009.7 hPa | 0 mm | - | - | - |
* Rain latest hour (hover to see other rain measurements)
** Current wind speed in m/s (hover to see current wind gust speed)